VRG2204 SBGL-SBBR

Flight info

Callsign VRG2204
Flight time 1h 21m
Altitude 40000
Route EDNAM UM409 ISIPI
Aircraft MD11/H-SDE1E2E3FGHIJ2J3J4J5M1RWXY/LB1D1

Departure

Time 2026-05-05 02:05
Airport Rio Galeão – Tom Jobim International Airport (SBGL)

Arrival

Time 2026-05-05 03:27
Airport Presidente Juscelino Kubitschek International Airport (SBBR)
Time Latitude Longitude Altitude Speed Heading
2026-05-05 01:22 -22.81773 -43.24409 29 ft 0 kts 128°
2026-05-05 01:50 -22.81775 -43.24408 29 ft 1 kts 134°
2026-05-05 01:51 -22.81780 -43.24408 28 ft 1 kts 165°
2026-05-05 01:51 -22.81784 -43.24410 28 ft 0 kts 190°
2026-05-05 01:51 -22.81786 -43.24410 28 ft 2 kts 189°
2026-05-05 01:51 -22.81791 -43.24418 28 ft 1 kts 233°
2026-05-05 01:52 -22.81788 -43.24428 28 ft 3 kts 282°
2026-05-05 01:52 -22.81767 -43.24456 29 ft 6 kts 309°
2026-05-05 01:52 -22.81748 -43.24489 29 ft 2 kts 283°
2026-05-05 01:52 -22.81752 -43.24494 29 ft 1 kts 250°
2026-05-05 01:53 -22.81757 -43.24497 29 ft 0 kts 218°
2026-05-05 01:55 -22.81759 -43.24499 29 ft 1 kts 218°
2026-05-05 01:55 -22.81765 -43.24504 29 ft 2 kts 219°
2026-05-05 01:55 -22.81773 -43.24519 28 ft 3 kts 244°
2026-05-05 01:55 -22.81773 -43.24549 29 ft 4 kts 279°
2026-05-05 01:56 -22.81756 -43.24576 28 ft 7 kts 304°
2026-05-05 01:56 -22.81718 -43.24637 29 ft 11 kts 304°
2026-05-05 01:56 -22.81670 -43.24709 29 ft 12 kts 307°
2026-05-05 01:56 -22.81637 -43.24759 29 ft 13 kts 306°
2026-05-05 01:57 -22.81565 -43.24863 29 ft 13 kts 313°
2026-05-05 01:57 -22.81511 -43.24941 29 ft 13 kts 303°
2026-05-05 01:57 -22.81465 -43.25016 29 ft 8 kts 309°
2026-05-05 01:57 -22.81434 -43.25060 29 ft 7 kts 307°
2026-05-05 01:58 -22.81404 -43.25103 29 ft 7 kts 307°
2026-05-05 01:58 -22.81381 -43.25127 29 ft 7 kts 318°
2026-05-05 01:58 -22.81348 -43.25164 29 ft 7 kts 311°
2026-05-05 01:58 -22.81316 -43.25208 29 ft 8 kts 306°
2026-05-05 01:59 -22.81281 -43.25263 29 ft 9 kts 306°
2026-05-05 01:59 -22.81234 -43.25315 29 ft 10 kts 320°
2026-05-05 01:59 -22.81172 -43.25355 29 ft 11 kts 331°
2026-05-05 01:59 -22.81099 -43.25383 29 ft 11 kts 352°
2026-05-05 02:00 -22.81018 -43.25385 29 ft 12 kts
2026-05-05 02:00 -22.80963 -43.25409 30 ft 7 kts 313°
2026-05-05 02:00 -22.80936 -43.25460 32 ft 7 kts 297°
2026-05-05 02:00 -22.80918 -43.25497 35 ft 7 kts 296°
2026-05-05 02:01 -22.80877 -43.25567 34 ft 13 kts 318°
2026-05-05 02:01 -22.80801 -43.25574 30 ft 6 kts 27°
2026-05-05 02:01 -22.80768 -43.25547 30 ft 8 kts 37°
2026-05-05 02:01 -22.80711 -43.25502 30 ft 11 kts 36°
2026-05-05 02:02 -22.80646 -43.25453 30 ft 11 kts 26°
2026-05-05 02:02 -22.80611 -43.25448 35 ft 0 kts 353°
2026-05-05 02:02 -22.80606 -43.25450 36 ft 6 kts 347°
2026-05-05 02:02 -22.80554 -43.25495 38 ft 9 kts 304°
2026-05-05 02:03 -22.80516 -43.25539 38 ft 10 kts 318°
2026-05-05 02:03 -22.80450 -43.25591 38 ft 13 kts 327°
2026-05-05 02:03 -22.80365 -43.25601 35 ft 13 kts 20°
2026-05-05 02:03 -22.80288 -43.25543 32 ft 14 kts 37°
2026-05-05 02:04 -22.80251 -43.25513 33 ft 3 kts 37°
2026-05-05 02:04 -22.80230 -43.25497 31 ft 4 kts 34°
2026-05-05 02:04 -22.80200 -43.25481 32 ft 5 kts 23°
2026-05-05 02:04 -22.80183 -43.25463 31 ft 3 kts 52°
2026-05-05 02:05 -22.80171 -43.25434 33 ft 11 kts 68°
2026-05-05 02:05 -22.80065 -43.25033 35 ft 109 kts 74°
2026-05-05 02:05 -22.79782 -43.23915 184 ft 183 kts 76°
2026-05-05 02:05 -22.79457 -43.22581 1282 ft 180 kts 75°
2026-05-05 02:06 -22.79166 -43.21255 2535 ft 183 kts 75°
2026-05-05 02:06 -22.78885 -43.19880 3630 ft 193 kts 76°
2026-05-05 02:06 -22.78574 -43.18326 4051 ft 232 kts 76°
2026-05-05 02:06 -22.78181 -43.16496 4207 ft 264 kts 76°
2026-05-05 02:07 -22.77754 -43.14527 4976 ft 271 kts 76°
2026-05-05 02:07 -22.77327 -43.12564 5936 ft 276 kts 77°
2026-05-05 02:07 -22.76881 -43.10518 6931 ft 282 kts 77°
2026-05-05 02:07 -22.76430 -43.08450 7894 ft 286 kts 77°
2026-05-05 02:08 -22.75967 -43.06336 8865 ft 291 kts 77°
2026-05-05 02:08 -22.75495 -43.04185 9848 ft 296 kts 77°
2026-05-05 02:08 -22.74875 -43.02002 10343 ft 320 kts 66°
2026-05-05 02:08 -22.73487 -42.99987 10487 ft 353 kts 39°
2026-05-05 02:09 -22.71239 -42.98781 10984 ft 369 kts 11°
2026-05-05 02:09 -22.68682 -42.98751 11886 ft 372 kts 347°
2026-05-05 02:09 -22.66248 -42.99718 12712 ft 376 kts 331°
2026-05-05 02:09 -22.63914 -43.01109 13094 ft 381 kts 329°
2026-05-05 02:10 -22.61579 -43.02463 13471 ft 381 kts 331°
2026-05-05 02:10 -22.59211 -43.03682 13842 ft 383 kts 334°
2026-05-05 02:10 -22.56740 -43.04814 13997 ft 386 kts 336°
2026-05-05 02:10 -22.54240 -43.05858 14013 ft 386 kts 338°
2026-05-05 02:11 -22.51709 -43.06865 14025 ft 387 kts 338°
2026-05-05 02:11 -22.49179 -43.07866 14026 ft 387 kts 338°
2026-05-05 02:11 -22.46655 -43.08862 14019 ft 387 kts 339°
2026-05-05 02:11 -22.44115 -43.09861 14028 ft 387 kts 339°
2026-05-05 02:12 -22.41583 -43.10855 14034 ft 387 kts 339°
2026-05-05 02:12 -22.36514 -43.12845 14036 ft 387 kts 339°
2026-05-05 02:12 -22.33984 -43.13840 14034 ft 387 kts 338°
2026-05-05 02:13 -22.31442 -43.14842 14055 ft 388 kts 339°
2026-05-05 02:13 -22.28902 -43.15843 14052 ft 388 kts 339°
2026-05-05 02:13 -22.26403 -43.16828 14052 ft 387 kts 339°
2026-05-05 02:13 -22.23867 -43.17827 14048 ft 387 kts 339°
2026-05-05 02:14 -22.21336 -43.18824 14055 ft 387 kts 338°
2026-05-05 02:14 -22.18803 -43.19821 14117 ft 386 kts 338°
2026-05-05 02:14 -22.16273 -43.20823 14228 ft 387 kts 337°
2026-05-05 02:14 -22.13821 -43.22031 14263 ft 389 kts 331°
2026-05-05 02:15 -22.11469 -43.23447 15198 ft 386 kts 328°
2026-05-05 02:15 -22.09144 -43.24921 16094 ft 388 kts 327°
2026-05-05 02:15 -22.06811 -43.26419 16966 ft 391 kts 326°
2026-05-05 02:15 -22.04496 -43.27902 17825 ft 394 kts 326°
2026-05-05 02:16 -22.02092 -43.29435 18682 ft 397 kts 326°
2026-05-05 02:16 -21.99701 -43.30951 19418 ft 401 kts 326°
2026-05-05 02:16 -21.97317 -43.32459 20093 ft 405 kts 326°
2026-05-05 02:16 -21.94874 -43.34000 20791 ft 409 kts 326°
2026-05-05 02:17 -21.92395 -43.35561 21463 ft 414 kts 326°
2026-05-05 02:17 -21.89900 -43.37131 22113 ft 419 kts 326°
2026-05-05 02:17 -21.87365 -43.38725 22793 ft 423 kts 326°
2026-05-05 02:17 -21.84809 -43.40332 23468 ft 428 kts 326°
2026-05-05 02:18 -21.82224 -43.41955 24078 ft 432 kts 326°
2026-05-05 02:18 -21.79611 -43.43591 24658 ft 435 kts 326°
2026-05-05 02:18 -21.76978 -43.45236 25227 ft 439 kts 325°
2026-05-05 02:18 -21.74330 -43.46890 25785 ft 442 kts 325°
2026-05-05 02:19 -21.71658 -43.48558 26346 ft 445 kts 325°
2026-05-05 02:19 -21.68967 -43.50239 26904 ft 449 kts 324°
2026-05-05 02:19 -21.66257 -43.51931 27429 ft 452 kts 324°
2026-05-05 02:19 -21.63518 -43.53641 27962 ft 455 kts 324°
2026-05-05 02:20 -21.60773 -43.55354 28479 ft 458 kts 324°
2026-05-05 02:20 -21.58001 -43.57082 29010 ft 462 kts 324°
2026-05-05 02:20 -21.55210 -43.58817 29514 ft 465 kts 324°
2026-05-05 02:20 -21.52413 -43.60551 30037 ft 468 kts 324°
2026-05-05 02:21 -21.49579 -43.62307 30514 ft 472 kts 323°
2026-05-05 02:21 -21.46731 -43.64071 30963 ft 475 kts 323°
2026-05-05 02:21 -21.43863 -43.65846 31497 ft 475 kts 323°
2026-05-05 02:21 -21.41010 -43.67610 32078 ft 473 kts 324°
2026-05-05 02:22 -21.38155 -43.69374 32664 ft 471 kts 324°
2026-05-05 02:22 -21.35328 -43.71121 33244 ft 469 kts 324°
2026-05-05 02:22 -21.32542 -43.72843 33802 ft 467 kts 324°
2026-05-05 02:22 -21.29712 -43.74592 34335 ft 465 kts 324°
2026-05-05 02:23 -21.26960 -43.76303 34763 ft 464 kts 323°
2026-05-05 02:23 -21.24187 -43.78073 35187 ft 463 kts 323°
2026-05-05 02:23 -21.21436 -43.79860 35590 ft 462 kts 322°
2026-05-05 02:23 -21.18694 -43.81653 35990 ft 461 kts 322°
2026-05-05 02:24 -21.15959 -43.83444 36349 ft 461 kts 322°
2026-05-05 02:24 -21.13221 -43.85235 36711 ft 461 kts 322°
2026-05-05 02:24 -21.10484 -43.87022 37088 ft 460 kts 322°
2026-05-05 02:24 -21.07745 -43.88807 37454 ft 460 kts 322°
2026-05-05 02:25 -21.05040 -43.90569 37824 ft 459 kts 322°
2026-05-05 02:25 -21.02310 -43.92346 38188 ft 459 kts 322°
2026-05-05 02:25 -20.99581 -43.94120 38528 ft 458 kts 322°
2026-05-05 02:25 -20.96862 -43.95886 38859 ft 457 kts 322°
2026-05-05 02:26 -20.94141 -43.97653 39155 ft 456 kts 322°
2026-05-05 02:26 -20.91431 -43.99413 39424 ft 456 kts 322°
2026-05-05 02:26 -20.88716 -44.01176 39682 ft 455 kts 322°
2026-05-05 02:26 -20.86042 -44.02911 39936 ft 455 kts 321°
2026-05-05 02:27 -20.83340 -44.04663 40166 ft 455 kts 321°
2026-05-05 02:27 -20.77892 -44.08200 40278 ft 459 kts 321°
2026-05-05 02:28 -20.72467 -44.11727 40279 ft 454 kts 321°
2026-05-05 02:28 -20.67083 -44.15237 40273 ft 454 kts 321°
2026-05-05 02:29 -20.61690 -44.18741 40273 ft 454 kts 321°
2026-05-05 02:29 -20.56276 -44.22225 40273 ft 454 kts 321°
2026-05-05 02:30 -20.50851 -44.25709 40265 ft 455 kts 321°
2026-05-05 02:30 -20.45422 -44.29194 40268 ft 455 kts 321°
2026-05-05 02:31 -20.39992 -44.32683 40247 ft 455 kts 321°
2026-05-05 02:31 -20.34568 -44.36173 40263 ft 456 kts 321°
2026-05-05 02:32 -20.29146 -44.39661 40259 ft 455 kts 321°
2026-05-05 02:32 -20.23720 -44.43147 40251 ft 456 kts 321°
2026-05-05 02:33 -20.18284 -44.46637 40246 ft 456 kts 321°
2026-05-05 02:33 -20.12880 -44.50102 40245 ft 456 kts 321°
2026-05-05 02:34 -20.07432 -44.53591 40235 ft 457 kts 321°
2026-05-05 02:34 -20.01994 -44.57073 40231 ft 457 kts 321°
2026-05-05 02:35 -19.96541 -44.60563 40231 ft 457 kts 321°
2026-05-05 02:35 -19.91094 -44.64047 40222 ft 458 kts 321°
2026-05-05 02:36 -19.85634 -44.67537 40221 ft 458 kts 321°
2026-05-05 02:36 -19.80173 -44.71023 40199 ft 458 kts 321°
2026-05-05 02:37 -19.74705 -44.74512 40219 ft 459 kts 322°
2026-05-05 02:37 -19.69239 -44.77996 40219 ft 458 kts 322°
2026-05-05 02:38 -19.63784 -44.81471 40211 ft 459 kts 321°
2026-05-05 02:38 -19.58305 -44.84958 40212 ft 460 kts 322°
2026-05-05 02:39 -19.52820 -44.88446 40207 ft 459 kts 322°
2026-05-05 02:39 -19.47343 -44.91936 40200 ft 459 kts 322°
2026-05-05 02:40 -19.41864 -44.95434 40202 ft 460 kts 321°
2026-05-05 02:40 -19.36414 -44.98912 40201 ft 460 kts 321°
2026-05-05 02:41 -19.30937 -45.02405 40200 ft 460 kts 322°
2026-05-05 02:41 -19.25450 -45.05902 40199 ft 460 kts 322°
2026-05-05 02:42 -19.19972 -45.09390 40194 ft 460 kts 322°
2026-05-05 02:42 -19.14489 -45.12878 40191 ft 460 kts 322°
2026-05-05 02:43 -19.08998 -45.16369 40195 ft 460 kts 322°
2026-05-05 02:43 -19.03508 -45.19856 40192 ft 460 kts 322°
2026-05-05 02:44 -18.98009 -45.23347 40185 ft 461 kts 322°
2026-05-05 02:44 -18.92500 -45.26841 40185 ft 461 kts 322°
2026-05-05 02:45 -18.87035 -45.30303 40182 ft 461 kts 322°
2026-05-05 02:45 -18.81519 -45.33795 40176 ft 461 kts 322°
2026-05-05 02:46 -18.76008 -45.37274 40181 ft 462 kts 322°
2026-05-05 02:46 -18.71418 -45.40171 40182 ft 462 kts 322°
2026-05-05 02:47 -18.64995 -45.44229 40186 ft 463 kts 322°
2026-05-05 02:47 -18.60370 -45.47148 40181 ft 463 kts 322°
2026-05-05 02:48 -18.54838 -45.50638 40181 ft 463 kts 322°
2026-05-05 02:48 -18.49351 -45.54096 40184 ft 462 kts 322°
2026-05-05 02:49 -18.43826 -45.57577 40183 ft 462 kts 322°
2026-05-05 02:49 -18.38374 -45.61151 40178 ft 459 kts 318°
2026-05-05 02:50 -18.33236 -45.65103 40182 ft 456 kts 315°
2026-05-05 02:50 -18.28172 -45.69146 40180 ft 456 kts 315°
2026-05-05 02:51 -18.23096 -45.73165 40171 ft 457 kts 316°
2026-05-05 02:51 -18.18039 -45.77138 40183 ft 456 kts 316°
2026-05-05 02:52 -18.12945 -45.81131 40188 ft 457 kts 316°
2026-05-05 02:52 -18.07844 -45.85125 40184 ft 457 kts 316°
2026-05-05 02:53 -18.02759 -45.89104 40161 ft 457 kts 316°
2026-05-05 02:53 -17.97657 -45.93094 40178 ft 457 kts 316°
2026-05-05 02:54 -17.92543 -45.97090 40179 ft 457 kts 316°
2026-05-05 02:54 -17.87426 -46.01087 40178 ft 459 kts 316°
2026-05-05 02:55 -17.82293 -46.05086 40169 ft 459 kts 316°
2026-05-05 02:55 -17.77169 -46.09075 40162 ft 459 kts 316°
2026-05-05 02:56 -17.72043 -46.13067 40162 ft 459 kts 316°
2026-05-05 02:56 -17.66941 -46.17039 40157 ft 459 kts 316°
2026-05-05 02:57 -17.61804 -46.21037 40132 ft 460 kts 316°
2026-05-05 02:57 -17.56665 -46.25033 40156 ft 460 kts 316°
2026-05-05 02:58 -17.51516 -46.29033 40152 ft 460 kts 316°
2026-05-05 02:58 -17.46370 -46.33028 40155 ft 460 kts 316°
2026-05-05 02:59 -17.41219 -46.37024 40125 ft 460 kts 316°
2026-05-05 02:59 -17.36064 -46.41022 40143 ft 462 kts 316°
2026-05-05 03:00 -17.30897 -46.45024 40144 ft 462 kts 316°
2026-05-05 03:00 -17.25767 -46.48994 40143 ft 461 kts 316°
2026-05-05 03:01 -17.20623 -46.52972 40144 ft 460 kts 316°
2026-05-05 03:01 -17.15459 -46.56960 40145 ft 462 kts 316°
2026-05-05 03:02 -17.10275 -46.60956 40146 ft 463 kts 316°
2026-05-05 03:02 -17.05195 -46.65057 40151 ft 459 kts 313°
2026-05-05 03:03 -17.00345 -46.69383 40149 ft 458 kts 311°
2026-05-05 03:03 -16.95532 -46.73742 40150 ft 459 kts 311°
2026-05-05 03:03 -16.93121 -46.75917 39967 ft 462 kts 311°
2026-05-05 03:04 -16.90671 -46.78118 39756 ft 462 kts 312°
2026-05-05 03:04 -16.88239 -46.80297 39380 ft 463 kts 311°
2026-05-05 03:04 -16.85790 -46.82487 38943 ft 465 kts 311°
2026-05-05 03:04 -16.83329 -46.84687 38410 ft 466 kts 312°
2026-05-05 03:05 -16.80861 -46.86893 37901 ft 467 kts 312°
2026-05-05 03:05 -16.78390 -46.89100 37403 ft 469 kts 312°
2026-05-05 03:05 -16.75909 -46.91316 36925 ft 470 kts 313°
2026-05-05 03:05 -16.73420 -46.93538 36468 ft 472 kts 313°
2026-05-05 03:06 -16.70955 -46.95738 35997 ft 473 kts 313°
2026-05-05 03:06 -16.68455 -46.97968 35520 ft 474 kts 313°
2026-05-05 03:06 -16.65941 -47.00209 35043 ft 476 kts 313°
2026-05-05 03:06 -16.63418 -47.02459 34562 ft 479 kts 313°
2026-05-05 03:07 -16.60875 -47.04726 34027 ft 480 kts 314°
2026-05-05 03:07 -16.58332 -47.06992 33455 ft 481 kts 314°
2026-05-05 03:07 -16.55786 -47.09258 32905 ft 482 kts 314°
2026-05-05 03:07 -16.53249 -47.11516 32385 ft 483 kts 315°
2026-05-05 03:08 -16.50698 -47.13786 31861 ft 484 kts 315°
2026-05-05 03:08 -16.48135 -47.16065 31332 ft 484 kts 316°
2026-05-05 03:08 -16.45571 -47.18344 30738 ft 484 kts 316°
2026-05-05 03:08 -16.43006 -47.20621 30048 ft 484 kts 317°
2026-05-05 03:09 -16.40458 -47.22878 29367 ft 479 kts 317°
2026-05-05 03:09 -16.37901 -47.25099 28758 ft 476 kts 318°
2026-05-05 03:09 -16.35371 -47.27241 28148 ft 474 kts 319°
2026-05-05 03:09 -16.32823 -47.29371 27570 ft 471 kts 319°
2026-05-05 03:10 -16.30275 -47.31491 26978 ft 468 kts 319°
2026-05-05 03:10 -16.27736 -47.33605 26396 ft 465 kts 319°
2026-05-05 03:10 -16.25220 -47.35700 25838 ft 462 kts 319°
2026-05-05 03:10 -16.22715 -47.37790 25255 ft 460 kts 319°
2026-05-05 03:11 -16.20229 -47.39866 24680 ft 457 kts 319°
2026-05-05 03:11 -16.17761 -47.41927 24121 ft 454 kts 319°
2026-05-05 03:11 -16.15301 -47.43981 23532 ft 452 kts 320°
2026-05-05 03:11 -16.12860 -47.46020 22911 ft 447 kts 320°
2026-05-05 03:12 -16.10449 -47.48031 22322 ft 443 kts 320°
2026-05-05 03:12 -16.08055 -47.50028 21773 ft 440 kts 320°
2026-05-05 03:12 -16.05682 -47.52007 21226 ft 436 kts 320°
2026-05-05 03:12 -16.03323 -47.53978 20665 ft 433 kts 320°
2026-05-05 03:13 -16.00984 -47.55936 20092 ft 429 kts 320°
2026-05-05 03:13 -15.98757 -47.57963 19523 ft 424 kts 314°
2026-05-05 03:13 -15.96936 -47.60345 18952 ft 419 kts 300°
2026-05-05 03:13 -15.95811 -47.63103 18397 ft 414 kts 283°
2026-05-05 03:14 -15.95471 -47.66053 17806 ft 409 kts 270°
2026-05-05 03:14 -15.95600 -47.68997 17246 ft 407 kts 265°
2026-05-05 03:14 -15.95878 -47.71918 16700 ft 406 kts 264°
2026-05-05 03:14 -15.96168 -47.74791 16189 ft 403 kts 264°
2026-05-05 03:15 -15.96433 -47.77677 15828 ft 400 kts 265°
2026-05-05 03:15 -15.96663 -47.80526 15663 ft 388 kts 265°
2026-05-05 03:15 -15.96859 -47.83221 15628 ft 362 kts 265°
2026-05-05 03:15 -15.97031 -47.85751 15497 ft 338 kts 266°
2026-05-05 03:16 -15.97184 -47.88114 15394 ft 318 kts 266°
2026-05-05 03:16 -15.97326 -47.90341 15276 ft 299 kts 266°
2026-05-05 03:16 -15.97459 -47.92436 15157 ft 283 kts 266°
2026-05-05 03:16 -15.97587 -47.94466 15048 ft 282 kts 266°
2026-05-05 03:17 -15.97716 -47.96512 14802 ft 284 kts 266°
2026-05-05 03:17 -15.97845 -47.98556 14336 ft 285 kts 266°
2026-05-05 03:17 -15.97975 -48.00619 13771 ft 287 kts 266°
2026-05-05 03:17 -15.98105 -48.02690 13206 ft 287 kts 266°
2026-05-05 03:18 -15.98236 -48.04762 12670 ft 286 kts 266°
2026-05-05 03:18 -15.98366 -48.06820 12142 ft 286 kts 266°
2026-05-05 03:18 -15.98496 -48.08876 11622 ft 285 kts 266°
2026-05-05 03:18 -15.98625 -48.10906 11198 ft 275 kts 266°
2026-05-05 03:19 -15.98862 -48.14674 10875 ft 244 kts 266°
2026-05-05 03:19 -15.98858 -48.16429 10556 ft 244 kts 280°
2026-05-05 03:19 -15.98150 -48.18027 10030 ft 249 kts 314°
2026-05-05 03:20 -15.96732 -48.19038 9517 ft 250 kts 336°
2026-05-05 03:20 -15.95090 -48.19667 8991 ft 253 kts 345°
2026-05-05 03:20 -15.93372 -48.20118 8480 ft 256 kts 349°
2026-05-05 03:20 -15.91612 -48.20460 7976 ft 258 kts 353°
2026-05-05 03:21 -15.89841 -48.20398 7470 ft 255 kts 19°
2026-05-05 03:21 -15.88340 -48.19488 7093 ft 247 kts 48°
2026-05-05 03:21 -15.87513 -48.17993 6797 ft 237 kts 77°
2026-05-05 03:21 -15.87501 -48.16331 6503 ft 226 kts 100°
2026-05-05 03:22 -15.87819 -48.14786 6149 ft 213 kts 101°
2026-05-05 03:22 -15.88100 -48.13338 5941 ft 192 kts 101°
2026-05-05 03:22 -15.88362 -48.12018 5932 ft 184 kts 101°
2026-05-05 03:22 -15.88619 -48.10760 5951 ft 181 kts 101°
2026-05-05 03:23 -15.88857 -48.09581 5889 ft 156 kts 101°
2026-05-05 03:23 -15.88909 -48.08478 5860 ft 150 kts 88°
2026-05-05 03:23 -15.88879 -48.07404 5862 ft 148 kts 89°
2026-05-05 03:23 -15.88839 -48.06334 5832 ft 149 kts 87°
2026-05-05 03:24 -15.88771 -48.05268 5661 ft 147 kts 86°
2026-05-05 03:24 -15.88705 -48.04215 5464 ft 145 kts 87°
2026-05-05 03:24 -15.88640 -48.03177 5293 ft 143 kts 87°
2026-05-05 03:24 -15.88574 -48.02148 5102 ft 142 kts 87°
2026-05-05 03:25 -15.88511 -48.01129 4928 ft 142 kts 86°
2026-05-05 03:25 -15.88446 -48.00093 4774 ft 144 kts 87°
2026-05-05 03:25 -15.88381 -47.99051 4554 ft 145 kts 87°
2026-05-05 03:25 -15.88326 -47.97994 4332 ft 147 kts 87°
2026-05-05 03:26 -15.88257 -47.96929 4175 ft 147 kts 86°
2026-05-05 03:26 -15.88178 -47.95828 3964 ft 162 kts 86°
2026-05-05 03:26 -15.88109 -47.94718 3709 ft 147 kts 87°
2026-05-05 03:26 -15.88041 -47.93624 3516 ft 153 kts 87°
2026-05-05 03:27 -15.87982 -47.92667 3487 ft 113 kts 86°
2026-05-05 03:27 -15.87937 -47.91993 3476 ft 76 kts 86°
2026-05-05 03:27 -15.87909 -47.91573 3464 ft 41 kts 86°
2026-05-05 03:27 -15.87890 -47.91305 3465 ft 31 kts 86°
2026-05-05 03:28 -15.87871 -47.91090 3460 ft 23 kts 84°
2026-05-05 03:28 -15.87861 -47.90983 3460 ft 12 kts 77°
2026-05-05 03:28 -15.87813 -47.90945 3461 ft 8 kts 12°
2026-05-05 03:28 -15.87757 -47.90943 3460 ft 8 kts 352°
2026-05-05 03:29 -15.87708 -47.90970 3462 ft 7 kts 310°
2026-05-05 03:29 -15.87695 -47.91021 3460 ft 8 kts 269°
2026-05-05 03:29 -15.87700 -47.91069 3463 ft 2 kts 263°
2026-05-05 03:29 -15.87702 -47.91112 3464 ft 11 kts 268°
2026-05-05 03:30 -15.87707 -47.91198 3463 ft 13 kts 266°
2026-05-05 03:30 -15.87713 -47.91297 3462 ft 14 kts 265°
2026-05-05 03:30 -15.87720 -47.91402 3464 ft 14 kts 265°
2026-05-05 03:30 -15.87724 -47.91497 3467 ft 12 kts 274°
2026-05-05 03:31 -15.87688 -47.91545 3469 ft 7 kts 339°
2026-05-05 03:31 -15.87568 -47.91560 3471 ft 40 kts 353°
2026-05-05 03:31 -15.87245 -47.91580 3476 ft 36 kts 358°
2026-05-05 03:31 -15.87082 -47.91592 3480 ft 19 kts 356°
2026-05-05 03:32 -15.86972 -47.91602 3476 ft 11 kts 357°
2026-05-05 03:32 -15.86899 -47.91606 3478 ft 11 kts 358°
2026-05-05 03:32 -15.86827 -47.91609 3476 ft 10 kts 357°
2026-05-05 03:32 -15.86759 -47.91612 3476 ft 10 kts 356°
2026-05-05 03:33 -15.86702 -47.91624 3476 ft 6 kts 324°
2026-05-05 03:33 -15.86687 -47.91654 3476 ft 5 kts 290°
2026-05-05 03:33 -15.86679 -47.91684 3477 ft 4 kts 295°
2026-05-05 03:33 -15.86659 -47.91703 3477 ft 4 kts 322°
2026-05-05 03:34 -15.86634 -47.91728 3475 ft 6 kts 310°
2026-05-05 03:34 -15.86616 -47.91769 3474 ft 7 kts 288°
2026-05-05 03:34 -15.86613 -47.91818 3476 ft 7 kts 269°
2026-05-05 03:34 -15.86617 -47.91864 3476 ft 6 kts 266°
2026-05-05 03:35 -15.86632 -47.91892 3476 ft 3 kts 217°
2026-05-05 03:35 -15.86643 -47.91895 3476 ft 2 kts 194°
2026-05-05 03:35 -15.86674 -47.91894 3477 ft 5 kts 176°
2026-05-05 03:35 -15.86703 -47.91892 3475 ft 2 kts 176°
2026-05-05 03:36 -15.86706 -47.91892 3476 ft 0 kts 176°